Year,Month,Day,Hour,Minute,Value (Times are PST for temperature in C)
2015,03,29,00,00,9.20
2015,03,29,00,01,9.20
2015,03,29,00,02,9.20
2015,03,29,00,04,9.20
2015,03,29,00,05,9.10
2015,03,29,00,06,9.10
2015,03,29,00,07,9.10
2015,03,29,00,08,9.10
2015,03,29,00,09,9.10
2015,03,29,00,10,9.10
2015,03,29,00,11,9.10
2015,03,29,00,12,9.10
2015,03,29,00,14,9.00
2015,03,29,00,15,9.00
2015,03,29,00,16,9.00
2015,03,29,00,17,9.00
2015,03,29,00,18,8.90
2015,03,29,00,19,8.90
2015,03,29,00,21,8.90
2015,03,29,00,22,8.90
2015,03,29,00,23,8.90
2015,03,29,00,24,8.90
2015,03,29,00,25,8.90
2015,03,29,00,26,8.90
2015,03,29,00,27,8.90
2015,03,29,00,28,8.90
2015,03,29,00,29,8.90
2015,03,29,00,30,8.90
2015,03,29,00,31,8.90
2015,03,29,00,32,8.90
2015,03,29,00,33,8.90
2015,03,29,00,34,8.90
2015,03,29,00,35,8.80
2015,03,29,00,36,8.90
2015,03,29,00,37,8.90
2015,03,29,00,38,8.80
2015,03,29,00,39,8.80
2015,03,29,00,40,8.80
2015,03,29,00,41,8.80
2015,03,29,00,42,8.80
2015,03,29,00,43,8.80
2015,03,29,00,44,8.80
2015,03,29,00,45,8.80
2015,03,29,00,46,8.80
2015,03,29,00,47,8.80
2015,03,29,00,48,8.80
2015,03,29,00,49,8.80
2015,03,29,00,50,8.80
2015,03,29,00,51,8.80
2015,03,29,00,52,8.80
2015,03,29,00,53,8.80
2015,03,29,00,54,8.80
2015,03,29,00,55,8.80
2015,03,29,00,56,8.80
2015,03,29,00,57,8.80
2015,03,29,00,58,8.80
2015,03,29,00,59,8.80
2015,03,29,01,00,8.80
2015,03,29,01,01,8.80
2015,03,29,01,02,8.80
2015,03,29,01,03,8.80
2015,03,29,01,04,8.80
2015,03,29,01,05,8.80
2015,03,29,01,06,8.80
2015,03,29,01,07,8.80
2015,03,29,01,08,8.80
2015,03,29,01,09,8.80
2015,03,29,01,10,8.80
2015,03,29,01,11,8.80
2015,03,29,01,12,8.80
2015,03,29,01,13,8.80
2015,03,29,01,14,8.80
2015,03,29,01,15,8.80
2015,03,29,01,16,8.80
2015,03,29,01,17,8.80
2015,03,29,01,18,8.80
2015,03,29,01,19,8.80
2015,03,29,01,20,8.80
2015,03,29,01,21,8.80
2015,03,29,01,22,8.80
2015,03,29,01,23,8.80
2015,03,29,01,24,8.80
2015,03,29,01,25,8.90
2015,03,29,01,26,8.80
2015,03,29,01,27,8.90
2015,03,29,01,28,8.90
2015,03,29,01,29,8.90
2015,03,29,01,30,8.90
2015,03,29,01,31,8.90
2015,03,29,01,32,8.90
2015,03,29,01,33,8.90
2015,03,29,01,34,8.90
2015,03,29,01,35,8.90
2015,03,29,01,36,8.90
2015,03,29,01,37,8.90
2015,03,29,01,38,8.90
2015,03,29,01,39,8.90
2015,03,29,01,40,8.90
2015,03,29,01,41,8.90
2015,03,29,01,42,8.90
2015,03,29,01,43,8.90
2015,03,29,01,44,8.90
2015,03,29,01,45,8.90
2015,03,29,01,46,8.90
2015,03,29,01,48,9.00
2015,03,29,01,49,9.00
2015,03,29,01,50,9.00
2015,03,29,01,51,9.00
2015,03,29,01,52,9.00
2015,03,29,01,53,9.00
2015,03,29,01,54,9.00
2015,03,29,01,55,9.00
2015,03,29,01,56,9.00
2015,03,29,01,57,9.00
2015,03,29,01,59,9.10
2015,03,29,02,00,9.10
2015,03,29,02,01,9.10
2015,03,29,02,02,9.10
2015,03,29,02,03,9.10
2015,03,29,02,04,9.10
2015,03,29,02,05,9.10
2015,03,29,02,06,9.10
2015,03,29,02,07,9.10
2015,03,29,02,08,9.10
2015,03,29,02,09,9.10
2015,03,29,02,10,9.10
2015,03,29,02,11,9.10
2015,03,29,02,12,9.20
2015,03,29,02,13,9.20
2015,03,29,02,14,9.20
2015,03,29,02,15,9.20
2015,03,29,02,16,9.20
2015,03,29,02,17,9.20
2015,03,29,02,18,9.20
2015,03,29,02,19,9.20
2015,03,29,02,20,9.20
2015,03,29,02,21,9.20
2015,03,29,02,22,9.20
2015,03,29,02,23,9.20
2015,03,29,02,24,9.20
2015,03,29,02,25,9.30
2015,03,29,02,26,9.30
2015,03,29,02,27,9.30
2015,03,29,02,29,9.30
2015,03,29,02,30,9.30
2015,03,29,02,31,9.20
2015,03,29,02,32,9.20
2015,03,29,02,33,9.20
2015,03,29,02,34,9.20
2015,03,29,02,35,9.30
2015,03,29,02,36,9.30
2015,03,29,02,37,9.30
2015,03,29,02,38,9.30
2015,03,29,02,39,9.30
2015,03,29,02,40,9.30
2015,03,29,02,41,9.30
2015,03,29,02,42,9.30
2015,03,29,02,44,9.30
2015,03,29,02,45,9.30
2015,03,29,02,46,9.30
2015,03,29,02,47,9.30
2015,03,29,02,48,9.20
2015,03,29,02,49,9.20
2015,03,29,02,50,9.20
2015,03,29,02,51,9.20
2015,03,29,02,52,9.20
2015,03,29,02,53,9.20
2015,03,29,02,54,9.20
2015,03,29,02,55,9.20
2015,03,29,02,56,9.20
2015,03,29,02,57,9.20
2015,03,29,02,58,9.20
2015,03,29,02,59,9.20
2015,03,29,03,00,9.20
2015,03,29,03,01,9.20
2015,03,29,03,03,9.20
2015,03,29,03,04,9.20
2015,03,29,03,05,9.20
2015,03,29,03,06,9.20
2015,03,29,03,07,9.20
2015,03,29,03,08,9.20
2015,03,29,03,09,9.20
2015,03,29,03,10,9.20
2015,03,29,03,11,9.20
2015,03,29,03,12,9.20
2015,03,29,03,13,9.20
2015,03,29,03,14,9.20
2015,03,29,03,15,9.20
2015,03,29,03,16,9.30
2015,03,29,03,17,9.30
2015,03,29,03,18,9.30
2015,03,29,03,19,9.30
2015,03,29,03,20,9.30
2015,03,29,03,21,9.40
2015,03,29,03,22,9.40
2015,03,29,03,24,9.40
2015,03,29,03,25,9.40
2015,03,29,03,27,9.50
2015,03,29,03,28,9.50
2015,03,29,03,29,9.60
2015,03,29,03,30,9.60
2015,03,29,03,31,9.70
2015,03,29,03,32,9.70
2015,03,29,03,33,9.70
2015,03,29,03,34,9.70
2015,03,29,03,35,9.70
2015,03,29,03,36,9.70
2015,03,29,03,37,9.70
2015,03,29,03,38,9.80
2015,03,29,03,39,9.80
2015,03,29,03,40,9.80
2015,03,29,03,41,9.80
2015,03,29,03,42,9.90
2015,03,29,03,43,9.90
2015,03,29,03,44,10.00
2015,03,29,03,45,10.00
2015,03,29,03,46,10.10
2015,03,29,03,48,10.10
2015,03,29,03,49,10.10
2015,03,29,03,50,10.10
2015,03,29,03,51,10.10
2015,03,29,03,52,10.10
2015,03,29,03,53,10.20
2015,03,29,03,55,10.20
2015,03,29,03,56,10.20
2015,03,29,03,57,10.20
2015,03,29,03,58,10.20
2015,03,29,03,59,10.20
2015,03,29,04,00,10.20
2015,03,29,04,01,10.20
2015,03,29,04,02,10.20
2015,03,29,04,03,10.20
2015,03,29,04,05,10.20
2015,03,29,04,06,10.20
2015,03,29,04,07,10.20
2015,03,29,04,08,10.20
2015,03,29,04,09,10.20
2015,03,29,04,10,10.20
2015,03,29,04,11,10.20
2015,03,29,04,12,10.20
2015,03,29,04,13,10.20
2015,03,29,04,14,10.20
2015,03,29,04,15,10.20
2015,03,29,04,16,10.20
2015,03,29,04,17,10.20
2015,03,29,04,18,10.30
2015,03,29,04,19,10.30
2015,03,29,04,20,10.30
2015,03,29,04,21,10.30
2015,03,29,04,22,10.30
2015,03,29,04,23,10.30
2015,03,29,04,24,10.30
2015,03,29,04,25,10.30
2015,03,29,04,26,10.30
2015,03,29,04,27,10.30
2015,03,29,04,28,10.30
2015,03,29,04,29,10.30
2015,03,29,04,30,10.30
2015,03,29,04,31,10.30
2015,03,29,04,32,10.30
2015,03,29,04,33,10.30
2015,03,29,04,34,10.30
2015,03,29,04,35,10.30
2015,03,29,04,36,10.30
2015,03,29,04,38,10.20
2015,03,29,04,39,10.20
2015,03,29,04,41,10.20
2015,03,29,04,42,10.20
2015,03,29,04,43,10.20
2015,03,29,04,44,10.20
2015,03,29,04,46,10.20
2015,03,29,04,47,10.20
2015,03,29,04,48,10.20
2015,03,29,04,50,10.20
2015,03,29,04,51,10.20
2015,03,29,04,52,10.20
2015,03,29,04,53,10.20
2015,03,29,04,54,10.20
2015,03,29,04,55,10.20
2015,03,29,04,56,10.20
2015,03,29,04,57,10.10
2015,03,29,04,58,10.10
2015,03,29,04,59,10.10
2015,03,29,05,00,10.10
2015,03,29,05,01,10.10
2015,03,29,05,02,10.00
2015,03,29,05,03,10.00
2015,03,29,05,04,9.90
2015,03,29,05,05,9.90
2015,03,29,05,06,9.90
2015,03,29,05,07,9.90
2015,03,29,05,08,9.90
2015,03,29,05,09,9.90
2015,03,29,05,10,9.90
2015,03,29,05,11,9.90
2015,03,29,05,12,9.80
2015,03,29,05,13,9.80
2015,03,29,05,14,9.80
2015,03,29,05,15,9.80
2015,03,29,05,16,9.90
2015,03,29,05,17,9.90
2015,03,29,05,18,9.90
2015,03,29,05,19,9.90
2015,03,29,05,20,9.90
2015,03,29,05,21,9.90
2015,03,29,05,22,9.90
2015,03,29,05,23,9.90
2015,03,29,05,24,9.90
2015,03,29,05,25,10.00
2015,03,29,05,26,10.00
2015,03,29,05,27,10.00
2015,03,29,05,28,10.00
2015,03,29,05,29,10.00
2015,03,29,05,30,10.00
2015,03,29,05,31,10.10
2015,03,29,05,32,10.10
2015,03,29,05,34,10.10
2015,03,29,05,35,10.10
2015,03,29,05,36,10.10
2015,03,29,05,37,10.10
2015,03,29,05,38,10.20
2015,03,29,05,39,10.20
2015,03,29,05,40,10.20
2015,03,29,05,41,10.20
2015,03,29,05,42,10.30
2015,03,29,05,43,10.30
2015,03,29,05,44,10.30
2015,03,29,05,45,10.30
2015,03,29,05,46,10.30
2015,03,29,05,47,10.30
2015,03,29,05,48,10.30
2015,03,29,05,49,10.30
2015,03,29,05,50,10.30
2015,03,29,05,51,10.30
2015,03,29,05,52,10.30
2015,03,29,05,53,10.30
2015,03,29,05,54,10.30
2015,03,29,05,55,10.30
2015,03,29,05,57,10.40
2015,03,29,05,58,10.40
2015,03,29,05,59,10.50
2015,03,29,06,00,10.50
2015,03,29,06,01,10.50
2015,03,29,06,03,10.50
2015,03,29,06,04,10.50
2015,03,29,06,05,10.50
2015,03,29,06,06,10.60
2015,03,29,06,07,10.60
2015,03,29,06,08,10.60
2015,03,29,06,09,10.60
2015,03,29,06,10,10.60
2015,03,29,06,11,10.60
2015,03,29,06,12,10.60
2015,03,29,06,13,10.60
2015,03,29,06,14,10.60
2015,03,29,06,15,10.60
2015,03,29,06,16,10.60
2015,03,29,06,17,10.60
2015,03,29,06,18,10.60
2015,03,29,06,19,10.60
2015,03,29,06,20,10.60
2015,03,29,06,21,10.60
2015,03,29,06,22,10.60
2015,03,29,06,23,10.60
2015,03,29,06,24,10.60
2015,03,29,06,25,10.60
2015,03,29,06,26,10.60
2015,03,29,06,27,10.60
2015,03,29,06,28,10.60
2015,03,29,06,29,10.60
2015,03,29,06,30,10.60
2015,03,29,06,31,10.60
2015,03,29,06,32,10.60
2015,03,29,06,33,10.60
2015,03,29,06,34,10.60
2015,03,29,06,35,10.50
2015,03,29,06,36,10.50
2015,03,29,06,37,10.50
2015,03,29,06,38,10.50
2015,03,29,06,39,10.50
2015,03,29,06,40,10.50
2015,03,29,06,41,10.50
2015,03,29,06,42,10.50
2015,03,29,06,43,10.50
2015,03,29,06,44,10.40
2015,03,29,06,45,10.40
2015,03,29,06,46,10.40
2015,03,29,06,47,10.40
2015,03,29,06,48,10.40
2015,03,29,06,49,10.50
2015,03,29,06,50,10.50
2015,03,29,06,51,10.50
2015,03,29,06,52,10.50
2015,03,29,06,53,10.50
2015,03,29,06,54,10.50
2015,03,29,06,55,10.50
2015,03,29,06,56,10.50
2015,03,29,06,57,10.50
2015,03,29,06,58,10.50
2015,03,29,06,59,10.50
2015,03,29,07,00,10.50
2015,03,29,07,01,10.50
2015,03,29,07,03,10.50
2015,03,29,07,04,10.50
2015,03,29,07,05,10.50
2015,03,29,07,06,10.40
2015,03,29,07,07,10.40
2015,03,29,07,08,10.40
2015,03,29,07,09,10.40
2015,03,29,07,10,10.40
2015,03,29,07,11,10.40
2015,03,29,07,12,10.40
2015,03,29,07,13,10.40
2015,03,29,07,14,10.40
2015,03,29,07,15,10.40
2015,03,29,07,16,10.40
2015,03,29,07,17,10.40
2015,03,29,07,18,10.40
2015,03,29,07,19,10.40
2015,03,29,07,20,10.40
2015,03,29,07,21,10.30
2015,03,29,07,22,10.40
2015,03,29,07,23,10.30
2015,03,29,07,24,10.30
2015,03,29,07,25,10.30
2015,03,29,07,26,10.30
2015,03,29,07,27,10.30
2015,03,29,07,28,10.30
2015,03,29,07,29,10.30
2015,03,29,07,30,10.30
2015,03,29,07,31,10.30
2015,03,29,07,32,10.30
2015,03,29,07,33,10.40
2015,03,29,07,34,10.40
2015,03,29,07,35,10.40
2015,03,29,07,36,10.40
2015,03,29,07,37,10.40
2015,03,29,07,38,10.40
2015,03,29,07,39,10.40
2015,03,29,07,40,10.40
2015,03,29,07,41,10.40
2015,03,29,07,42,10.40
2015,03,29,07,43,10.40
2015,03,29,07,44,10.40
2015,03,29,07,45,10.40
2015,03,29,07,46,10.40
2015,03,29,07,47,10.40
2015,03,29,07,48,10.40
2015,03,29,07,49,10.40
2015,03,29,07,50,10.40
2015,03,29,07,51,10.40
2015,03,29,07,52,10.40
2015,03,29,07,53,10.50
2015,03,29,07,54,10.50
2015,03,29,07,55,10.50
2015,03,29,07,56,10.50
2015,03,29,07,57,10.50
2015,03,29,07,58,10.50
2015,03,29,07,59,10.50
2015,03,29,08,00,10.50
2015,03,29,08,01,10.50
2015,03,29,08,03,10.60
2015,03,29,08,04,10.50
2015,03,29,08,05,10.60
2015,03,29,08,06,10.50
2015,03,29,08,07,10.60
2015,03,29,08,08,10.60
2015,03,29,08,09,10.60
2015,03,29,08,10,10.60
2015,03,29,08,11,10.60
2015,03,29,08,12,10.70
2015,03,29,08,13,10.70
2015,03,29,08,14,10.70
2015,03,29,08,15,10.70
2015,03,29,08,16,10.70
2015,03,29,08,17,10.70
2015,03,29,08,18,10.70
2015,03,29,08,19,10.70
2015,03,29,08,20,10.70
2015,03,29,08,21,10.70
2015,03,29,08,22,10.70
2015,03,29,08,23,10.80
2015,03,29,08,24,10.80
2015,03,29,08,25,10.80
2015,03,29,08,26,10.80
2015,03,29,08,27,10.80
2015,03,29,08,28,10.80
2015,03,29,08,29,10.80
2015,03,29,08,30,10.90
2015,03,29,08,31,10.90
2015,03,29,08,32,10.90
2015,03,29,08,33,10.90
2015,03,29,08,34,10.90
2015,03,29,08,35,10.90
2015,03,29,08,36,10.90
2015,03,29,08,37,10.90
2015,03,29,08,38,10.90
2015,03,29,08,39,10.90
2015,03,29,08,40,10.90
2015,03,29,08,41,11.00
2015,03,29,08,42,11.00
2015,03,29,08,43,11.00
2015,03,29,08,44,11.10
2015,03,29,08,45,11.00
2015,03,29,08,46,11.10
2015,03,29,08,47,11.10
2015,03,29,08,48,11.10
2015,03,29,08,49,11.10
2015,03,29,08,50,11.10
2015,03,29,08,51,11.10
2015,03,29,08,52,11.10
2015,03,29,08,53,11.10
2015,03,29,08,54,11.10
2015,03,29,08,55,11.10
2015,03,29,08,56,11.10
2015,03,29,08,57,11.10
2015,03,29,08,58,11.10
2015,03,29,08,59,11.10
2015,03,29,09,00,11.10
2015,03,29,09,01,11.10
2015,03,29,09,02,11.10
2015,03,29,09,03,11.10
2015,03,29,09,04,11.10
2015,03,29,09,05,11.10
2015,03,29,09,06,11.10
2015,03,29,09,07,11.10
2015,03,29,09,08,11.10
2015,03,29,09,09,11.10
2015,03,29,09,10,11.10
2015,03,29,09,11,11.10
2015,03,29,09,12,11.10
2015,03,29,09,13,11.10
2015,03,29,09,14,11.10
2015,03,29,09,15,11.10
2015,03,29,09,16,11.10
2015,03,29,09,17,11.10
2015,03,29,09,18,11.10
2015,03,29,09,19,11.10
2015,03,29,09,20,11.10
2015,03,29,09,21,11.10
2015,03,29,09,22,11.10
2015,03,29,09,23,11.10
2015,03,29,09,24,11.10
2015,03,29,09,25,11.10
2015,03,29,09,26,11.10
2015,03,29,09,27,11.00
2015,03,29,09,28,11.00
2015,03,29,09,29,11.00
2015,03,29,09,30,10.90
2015,03,29,09,31,10.90
2015,03,29,09,32,10.90
2015,03,29,09,33,10.90
2015,03,29,09,34,10.90
2015,03,29,09,35,10.80
2015,03,29,09,36,10.80
2015,03,29,09,37,10.80
2015,03,29,09,38,10.80
2015,03,29,09,39,10.80
2015,03,29,09,40,10.80
2015,03,29,09,41,10.80
2015,03,29,09,42,10.80
2015,03,29,09,43,10.80
2015,03,29,09,44,10.80
2015,03,29,09,45,10.80
2015,03,29,09,46,10.80
2015,03,29,09,47,10.80
2015,03,29,09,48,10.80
2015,03,29,09,49,10.80
2015,03,29,09,50,10.80
2015,03,29,09,51,10.80
2015,03,29,09,52,10.80
2015,03,29,09,53,10.80
2015,03,29,09,54,10.80
2015,03,29,09,55,10.70
2015,03,29,09,56,10.70
2015,03,29,09,57,10.70
2015,03,29,09,58,10.70
2015,03,29,09,59,10.70
2015,03,29,10,00,10.70
2015,03,29,10,01,10.70
2015,03,29,10,02,10.70
2015,03,29,10,03,10.70
2015,03,29,10,04,10.70
2015,03,29,10,05,10.70
2015,03,29,10,06,10.70
2015,03,29,10,07,10.70
2015,03,29,10,09,10.70
2015,03,29,10,10,10.70
2015,03,29,10,11,10.70
2015,03,29,10,12,10.70
2015,03,29,10,13,10.70
2015,03,29,10,14,10.70
2015,03,29,10,15,10.70
2015,03,29,10,16,10.70
2015,03,29,10,17,10.70
2015,03,29,10,18,10.70
2015,03,29,10,19,10.70
2015,03,29,10,20,10.70
2015,03,29,10,21,10.70
2015,03,29,10,22,10.70
2015,03,29,10,23,10.70
2015,03,29,10,24,10.70
2015,03,29,10,25,10.60
2015,03,29,10,26,10.60
2015,03,29,10,27,10.60
2015,03,29,10,28,10.60
2015,03,29,10,29,10.60
2015,03,29,10,30,10.50
2015,03,29,10,31,10.40
2015,03,29,10,32,10.40
2015,03,29,10,33,10.40
2015,03,29,10,34,10.30
2015,03,29,10,35,10.30
2015,03,29,10,36,10.30
2015,03,29,10,37,10.30
2015,03,29,10,38,10.30
2015,03,29,10,39,10.30
2015,03,29,10,40,10.30
2015,03,29,10,41,10.30
2015,03,29,10,42,10.30
2015,03,29,10,43,10.30
2015,03,29,10,44,10.30
2015,03,29,10,45,10.30
2015,03,29,10,46,10.30
2015,03,29,10,47,10.30
2015,03,29,10,48,10.30
2015,03,29,10,49,10.30
2015,03,29,10,50,10.30
2015,03,29,10,51,10.30
2015,03,29,10,52,10.30
2015,03,29,10,53,10.40
2015,03,29,10,54,10.30
2015,03,29,10,55,10.30
2015,03,29,10,56,10.30
2015,03,29,10,57,10.30
2015,03,29,10,58,10.30
2015,03,29,10,59,10.30
2015,03,29,11,00,10.30
2015,03,29,11,02,10.20
2015,03,29,11,03,10.20
2015,03,29,11,04,10.10
2015,03,29,11,05,10.10
2015,03,29,11,06,10.10
2015,03,29,11,07,10.10
2015,03,29,11,08,10.00
2015,03,29,11,09,10.00
2015,03,29,11,10,10.00
2015,03,29,11,11,10.00
2015,03,29,11,12,10.00
2015,03,29,11,13,10.00
2015,03,29,11,14,10.00
2015,03,29,11,15,10.00
2015,03,29,11,16,9.90
2015,03,29,11,17,9.90
2015,03,29,11,18,9.90
2015,03,29,11,19,10.00
2015,03,29,11,20,9.90
2015,03,29,11,21,9.90
2015,03,29,11,22,9.90
2015,03,29,11,23,9.90
2015,03,29,11,24,9.90
2015,03,29,11,25,9.90
2015,03,29,11,26,9.90
2015,03,29,11,27,9.90
2015,03,29,11,28,9.90
2015,03,29,11,29,9.90
2015,03,29,11,30,9.90
2015,03,29,11,31,9.90
2015,03,29,11,32,9.90
2015,03,29,11,33,9.90
2015,03,29,11,34,9.90
2015,03,29,11,35,10.00
2015,03,29,11,37,10.00
2015,03,29,11,38,10.10
2015,03,29,11,39,10.10
2015,03,29,11,40,10.10
2015,03,29,11,41,10.10
2015,03,29,11,42,10.10
2015,03,29,11,43,10.20
2015,03,29,11,44,10.20
2015,03,29,11,45,10.20
2015,03,29,11,46,10.20
2015,03,29,11,47,10.30
2015,03,29,11,48,10.30
2015,03,29,11,49,10.30
2015,03,29,11,50,10.30
2015,03,29,11,51,10.30
2015,03,29,11,52,10.40
2015,03,29,11,53,10.40
2015,03,29,11,54,10.40
2015,03,29,11,55,10.40
2015,03,29,11,56,10.40
2015,03,29,11,57,10.50
2015,03,29,11,58,10.50
2015,03,29,11,59,10.50
2015,03,29,12,00,10.60
2015,03,29,12,01,10.60
2015,03,29,12,02,10.60
2015,03,29,12,03,10.60
2015,03,29,12,04,10.70
2015,03,29,12,05,10.70
2015,03,29,12,06,10.70
2015,03,29,12,07,10.70
2015,03,29,12,08,10.70
2015,03,29,12,09,10.80
2015,03,29,12,10,10.80
2015,03,29,12,11,10.80
2015,03,29,12,12,10.80
2015,03,29,12,13,10.90
2015,03,29,12,14,10.90
2015,03,29,12,15,10.90
2015,03,29,12,16,11.00
2015,03,29,12,17,11.10
2015,03,29,12,18,11.10
2015,03,29,12,19,11.10
2015,03,29,12,20,11.20
2015,03,29,12,21,11.20
2015,03,29,12,22,11.20
2015,03,29,12,23,11.20
2015,03,29,12,24,11.20
2015,03,29,12,25,11.30
2015,03,29,12,26,11.30
2015,03,29,12,27,11.30
2015,03,29,12,28,11.30
2015,03,29,12,29,11.30
2015,03,29,12,30,11.30
2015,03,29,12,31,11.30
2015,03,29,12,32,11.30
2015,03,29,12,33,11.30
2015,03,29,12,34,11.30
2015,03,29,12,35,11.40
2015,03,29,12,36,11.40
2015,03,29,12,37,11.40
2015,03,29,12,38,11.50
2015,03,29,12,39,11.50
2015,03,29,12,40,11.50
2015,03,29,12,41,11.60
2015,03,29,12,42,11.60
2015,03,29,12,43,11.60
2015,03,29,12,44,11.60
2015,03,29,12,45,11.60
2015,03,29,12,46,11.60
2015,03,29,12,47,11.60
2015,03,29,12,48,11.60
2015,03,29,12,49,11.70
2015,03,29,12,50,11.70
2015,03,29,12,51,11.70
2015,03,29,12,52,11.70
2015,03,29,12,53,11.80
2015,03,29,12,54,11.80
2015,03,29,12,55,11.80
2015,03,29,12,56,11.80
2015,03,29,12,57,11.90
2015,03,29,12,58,11.90
2015,03,29,12,59,11.90
2015,03,29,13,00,11.90
2015,03,29,13,01,11.90
2015,03,29,13,02,12.00
2015,03,29,13,03,12.10
2015,03,29,13,04,12.10
2015,03,29,13,05,12.20
2015,03,29,13,06,12.20
2015,03,29,13,07,12.20
2015,03,29,13,08,12.30
2015,03,29,13,09,12.30
2015,03,29,13,10,12.30
2015,03,29,13,11,12.30
2015,03,29,13,12,12.40
2015,03,29,13,13,12.40
2015,03,29,13,14,12.40
2015,03,29,13,15,12.50
2015,03,29,13,16,12.60
2015,03,29,13,17,12.60
2015,03,29,13,19,12.70
2015,03,29,13,20,12.70
2015,03,29,13,21,12.80
2015,03,29,13,22,12.80
2015,03,29,13,23,12.90
2015,03,29,13,24,13.10
2015,03,29,13,25,13.10
2015,03,29,13,26,13.20
2015,03,29,13,27,13.30
2015,03,29,13,28,13.30
2015,03,29,13,29,13.40
2015,03,29,13,30,13.40
2015,03,29,13,31,13.40
2015,03,29,13,32,13.40
2015,03,29,13,33,13.40
2015,03,29,13,34,13.40
2015,03,29,13,35,13.40
2015,03,29,13,36,13.60
2015,03,29,13,37,13.60
2015,03,29,13,38,13.60
2015,03,29,13,39,13.60
2015,03,29,13,40,13.60
2015,03,29,13,41,13.70
2015,03,29,13,42,13.70
2015,03,29,13,43,13.70
2015,03,29,13,44,13.80
2015,03,29,13,45,13.80
2015,03,29,13,46,13.80
2015,03,29,13,47,13.80
2015,03,29,13,48,13.80
2015,03,29,13,49,13.80
2015,03,29,13,50,13.90
2015,03,29,13,51,13.90
2015,03,29,13,52,13.90
2015,03,29,13,53,13.90
2015,03,29,13,54,13.90
2015,03,29,13,55,13.90
2015,03,29,13,56,13.90
2015,03,29,13,57,13.90
2015,03,29,13,58,13.90
2015,03,29,13,59,13.90
2015,03,29,14,00,13.90
2015,03,29,14,01,13.90
2015,03,29,14,02,14.00
2015,03,29,14,03,14.00
2015,03,29,14,04,14.00
2015,03,29,14,05,13.90
2015,03,29,14,06,13.90
2015,03,29,14,07,13.90
2015,03,29,14,08,13.90
2015,03,29,14,09,13.90
2015,03,29,14,10,13.80
2015,03,29,14,11,13.80
2015,03,29,14,12,13.80
2015,03,29,14,13,13.90
2015,03,29,14,14,13.90
2015,03,29,14,15,13.90
2015,03,29,14,16,13.90
2015,03,29,14,17,14.00
2015,03,29,14,18,14.10
2015,03,29,14,19,14.10
2015,03,29,14,20,14.20
2015,03,29,14,21,14.20
2015,03,29,14,22,14.30
2015,03,29,14,23,14.40
2015,03,29,14,24,14.50
2015,03,29,14,25,14.60
2015,03,29,14,26,14.70
2015,03,29,14,27,14.80
2015,03,29,14,28,14.90
2015,03,29,14,29,14.90
2015,03,29,14,30,14.90
2015,03,29,14,31,14.90
2015,03,29,14,32,15.00
2015,03,29,14,33,15.10
2015,03,29,14,34,15.10
2015,03,29,14,35,15.10
2015,03,29,14,36,15.10
2015,03,29,14,37,15.10
2015,03,29,14,38,15.10
2015,03,29,14,39,15.20
2015,03,29,14,40,15.20
2015,03,29,14,41,15.20
2015,03,29,14,42,15.20
2015,03,29,14,43,15.20
2015,03,29,14,44,15.20
2015,03,29,14,45,15.20
2015,03,29,14,46,15.20
2015,03,29,14,47,15.20
2015,03,29,14,48,15.30
2015,03,29,14,49,15.20
2015,03,29,14,50,15.30
2015,03,29,14,51,15.20
2015,03,29,14,52,15.30
2015,03,29,14,53,15.30
2015,03,29,14,54,15.30
2015,03,29,14,55,15.30
2015,03,29,14,56,15.30
2015,03,29,14,57,15.30
2015,03,29,14,58,15.30
2015,03,29,14,59,15.30
2015,03,29,15,00,15.30
2015,03,29,15,01,15.30
2015,03,29,15,03,15.30
2015,03,29,15,04,15.30
2015,03,29,15,05,15.20
2015,03,29,15,06,15.20
2015,03,29,15,07,15.30
2015,03,29,15,08,15.30
2015,03,29,15,09,15.30
2015,03,29,15,10,15.30
2015,03,29,15,11,15.20
2015,03,29,15,12,15.20
2015,03,29,15,13,15.20
2015,03,29,15,14,15.20
2015,03,29,15,15,15.20
2015,03,29,15,16,15.20
2015,03,29,15,17,15.30
2015,03,29,15,18,15.30
2015,03,29,15,19,15.30
2015,03,29,15,20,15.30
2015,03,29,15,21,15.30
2015,03,29,15,22,15.40
2015,03,29,15,23,15.40
2015,03,29,15,25,15.40
2015,03,29,15,26,15.40
2015,03,29,15,27,15.40
2015,03,29,15,28,15.40
2015,03,29,15,29,15.30
2015,03,29,15,30,15.30
2015,03,29,15,31,15.30
2015,03,29,15,32,15.30
2015,03,29,15,33,15.30
2015,03,29,15,34,15.30
2015,03,29,15,35,15.20
2015,03,29,15,36,15.20
2015,03,29,15,37,15.20
2015,03,29,15,38,15.30
2015,03,29,15,39,15.30
2015,03,29,15,40,15.20
2015,03,29,15,41,15.20
2015,03,29,15,42,15.20
2015,03,29,15,43,15.20
2015,03,29,15,44,15.20
2015,03,29,15,45,15.20
2015,03,29,15,46,15.20
2015,03,29,15,47,15.20
2015,03,29,15,48,15.20
2015,03,29,15,49,15.20
2015,03,29,15,50,15.20
2015,03,29,15,51,15.20
2015,03,29,15,52,15.20
2015,03,29,15,53,15.10
2015,03,29,15,54,15.10
2015,03,29,15,55,15.10
2015,03,29,15,56,15.10
2015,03,29,15,57,15.20
2015,03,29,15,58,15.20
2015,03,29,15,59,15.20
2015,03,29,16,00,15.20
2015,03,29,16,01,15.20
2015,03,29,16,03,15.30
2015,03,29,16,04,15.30
2015,03,29,16,05,15.30
2015,03,29,16,06,15.30
2015,03,29,16,07,15.30
2015,03,29,16,08,15.30
2015,03,29,16,09,15.30
2015,03,29,16,10,15.30
2015,03,29,16,11,15.30
2015,03,29,16,12,15.40
2015,03,29,16,13,15.40
2015,03,29,16,14,15.30
2015,03,29,16,15,15.30
2015,03,29,16,16,15.30
2015,03,29,16,17,15.30
2015,03,29,16,18,15.30
2015,03,29,16,19,15.30
2015,03,29,16,20,15.30
2015,03,29,16,21,15.30
2015,03,29,16,22,15.30
2015,03,29,16,23,15.30
2015,03,29,16,24,15.30
2015,03,29,16,25,15.30
2015,03,29,16,26,15.30
2015,03,29,16,27,15.30
2015,03,29,16,28,15.30
2015,03,29,16,29,15.30
2015,03,29,16,30,15.30
2015,03,29,16,31,15.30
2015,03,29,16,32,15.30
2015,03,29,16,33,15.30
2015,03,29,16,34,15.30
2015,03,29,16,35,15.30
2015,03,29,16,37,15.30
2015,03,29,16,38,15.30
2015,03,29,16,39,15.30
2015,03,29,16,40,15.30
2015,03,29,16,41,15.30
2015,03,29,16,42,15.30
2015,03,29,16,43,15.30
2015,03,29,16,44,15.30
2015,03,29,16,45,15.30
2015,03,29,16,46,15.30
2015,03,29,16,47,15.30
2015,03,29,16,48,15.30
2015,03,29,16,49,15.30
2015,03,29,16,50,15.30
2015,03,29,16,51,15.30
2015,03,29,16,52,15.30
2015,03,29,16,53,15.30
2015,03,29,16,54,15.30
2015,03,29,16,55,15.30
2015,03,29,16,56,15.30
2015,03,29,16,57,15.30
2015,03,29,16,58,15.30
2015,03,29,16,59,15.30
2015,03,29,17,00,15.30
2015,03,29,17,01,15.30
2015,03,29,17,02,15.30
2015,03,29,17,03,15.30
2015,03,29,17,04,15.20
2015,03,29,17,05,15.20
2015,03,29,17,06,15.20
2015,03,29,17,07,15.20
2015,03,29,17,08,15.20
2015,03,29,17,09,15.20
2015,03,29,17,10,15.20
2015,03,29,17,11,15.20
2015,03,29,17,12,15.20
2015,03,29,17,13,15.20
2015,03,29,17,14,15.20
2015,03,29,17,15,15.30
2015,03,29,17,16,15.30
2015,03,29,17,17,15.30
2015,03,29,17,18,15.30
2015,03,29,17,19,15.30
2015,03,29,17,20,15.30
2015,03,29,17,21,15.30
2015,03,29,17,22,15.30
2015,03,29,17,23,15.20
2015,03,29,17,24,15.20
2015,03,29,17,25,15.20
2015,03,29,17,26,15.20
2015,03,29,17,27,15.10
2015,03,29,17,28,15.10
2015,03,29,17,29,15.10
2015,03,29,17,30,15.10
2015,03,29,17,31,15.10
2015,03,29,17,32,15.10
2015,03,29,17,33,15.10
2015,03,29,17,34,15.10
2015,03,29,17,35,15.10
2015,03,29,17,36,15.10
2015,03,29,17,37,15.10
2015,03,29,17,38,15.10
2015,03,29,17,39,15.10
2015,03,29,17,40,15.00
2015,03,29,17,41,15.00
2015,03,29,17,42,15.00
2015,03,29,17,43,15.00
2015,03,29,17,44,15.00
2015,03,29,17,45,15.00
2015,03,29,17,46,14.90
2015,03,29,17,47,14.90
2015,03,29,17,48,14.90
2015,03,29,17,49,14.90
2015,03,29,17,50,14.90
2015,03,29,17,51,14.80
2015,03,29,17,52,14.80
2015,03,29,17,53,14.80
2015,03,29,17,54,14.80
2015,03,29,17,55,14.80
2015,03,29,17,56,14.80
2015,03,29,17,57,14.80
2015,03,29,17,58,14.80
2015,03,29,17,59,14.70
2015,03,29,18,00,14.70